TimeCDT,TemperatureF,Dew PointF,Humidity,Sea Level PressureIn,VisibilityMPH,Wind Direction,Wind SpeedMPH,Gust SpeedMPH,PrecipitationIn,Events,Conditions,WindDirDegrees,DateUTC
12:53 AM,61.0,57.9,90,30.03,10.0,Calm,Calm,-,N/A,,Clear,0,2013-05-09 05:53:00
1:53 AM,60.1,57.9,93,30.04,10.0,Calm,Calm,-,N/A,,Clear,0,2013-05-09 06:53:00
2:53 AM,60.1,57.0,90,30.03,10.0,Calm,Calm,-,N/A,,Clear,0,2013-05-09 07:53:00
3:53 AM,59.0,55.9,90,30.03,10.0,Calm,Calm,-,N/A,,Clear,0,2013-05-09 08:53:00
4:53 AM,57.9,55.9,93,30.04,8.0,Calm,Calm,-,N/A,,Clear,0,2013-05-09 09:53:00
5:53 AM,57.9,55.0,90,30.05,9.0,Calm,Calm,-,N/A,,Clear,0,2013-05-09 10:53:00
6:53 AM,59.0,57.0,93,30.07,9.0,Calm,Calm,-,N/A,,Clear,0,2013-05-09 11:53:00
7:53 AM,64.0,60.1,87,30.08,10.0,SSW,6.9,-,N/A,,Clear,200,2013-05-09 12:53:00
8:53 AM,69.1,60.1,73,30.10,10.0,WSW,6.9,-,N/A,,Clear,240,2013-05-09 13:53:00
9:53 AM,73.0,60.1,64,30.10,10.0,Variable,5.8,-,N/A,,Clear,0,2013-05-09 14:53:00
10:53 AM,77.0,60.1,56,30.11,10.0,West,8.1,-,N/A,,Clear,270,2013-05-09 15:53:00
11:53 AM,77.0,59.0,54,30.11,10.0,Variable,6.9,-,N/A,,Clear,0,2013-05-09 16:53:00
12:53 PM,80.1,61.0,52,30.10,10.0,Variable,4.6,-,N/A,,Clear,0,2013-05-09 17:53:00
1:53 PM,81.0,62.1,52,30.06,10.0,SSW,9.2,-,N/A,,Partly Cloudy,210,2013-05-09 18:53:00
2:53 PM,82.0,61.0,49,30.03,10.0,SSW,10.4,-,N/A,,Partly Cloudy,210,2013-05-09 19:53:00
3:53 PM,82.9,62.1,49,30.00,10.0,SSW,12.7,19.6,N/A,,Partly Cloudy,210,2013-05-09 20:53:00
4:53 PM,80.1,60.1,50,29.99,10.0,SW,9.2,-,N/A,,Partly Cloudy,230,2013-05-09 21:53:00
5:53 PM,79.0,60.1,52,29.99,10.0,SW,11.5,-,N/A,,Clear,220,2013-05-09 22:53:00
6:53 PM,77.0,60.1,56,30.00,10.0,SW,6.9,-,N/A,,Clear,230,2013-05-09 23:53:00
7:53 PM,73.0,60.1,64,30.00,10.0,WSW,3.5,-,N/A,,Clear,240,2013-05-10 00:53:00
8:53 PM,72.0,61.0,68,30.01,10.0,SSW,3.5,-,N/A,,Mostly Cloudy,210,2013-05-10 01:53:00
9:53 PM,70.0,61.0,73,30.01,10.0,SSW,4.6,-,N/A,,Partly Cloudy,210,2013-05-10 02:53:00
10:53 PM,70.0,62.1,76,30.01,10.0,SSW,4.6,-,N/A,,Overcast,200,2013-05-10 03:53:00
11:53 PM,69.1,62.1,78,29.99,10.0,South,4.6,-,N/A,,Partly Cloudy,190,2013-05-10 04:53:00